Terug naar catalogus

STARLINK-37724

ActiefCommunicatieSSO
NORAD 69218·PAYLOAD·🇺🇸 United States

Gelanceerd May 26, 2026 vanaf Vandenberg Space Force Base

Loading…

Volgende Passages (komende 24 uur)

TLE

VersSource: CelesTrak SupGP

Epoch: Sep 14, 2026, 22:43 UTC

1 69218C 26115H   26257.94701389  .00042948  00000+0  13332-2 0  2571
2 69218  97.2833 274.0976 0001311  87.7633  58.9517 15.33416506    15

Volg STARLINK-37724 in realtime met AllMySat

Download on the App Store